weather.gov     
National Weather Service

Terminal Aerodrome Forecast
NWS Homepage
This page is being discontinued on March 12, 2014.
The same data is available at this site. Please update your bookmarks.
Thank you, and we apologize for the inconvenience.
Please send an email to SR-SRH.Webmaster@noaa.gov with any concerns.


Current Version
Previous Version:    01  02  03  04  05  06  07  08  09  10  11  12  13  14  15  16  17  18  19  20  21  22  23  24  25  26  27  28  29  30  
   31  32  33  34  35  36  37  38  39  40  41  42  43  44  45  
[Printable]
120
FTUS41 KBOX 021413 AAA
TAFMHT
TAF AMD
KMHT 021413Z 0214/0312 VRB03KT P6SM FEW050
     FM021600 21006KT P6SM SCT050
     FM021800 21007KT P6SM BKN050
     FM030000 19006KT P6SM SCT050
     FM030400 25005KT P6SM BKN250
     FM031000 29005KT P6SM SCT015=




120
FTUS41 KBOX 021413 AAA
TAFMHT
TAF AMD
KMHT 021413Z 0214/0312 VRB03KT P6SM FEW050
     FM021600 21006KT P6SM SCT050
     FM021800 21007KT P6SM BKN050
     FM030000 19006KT P6SM SCT050
     FM030400 25005KT P6SM BKN250
     FM031000 29005KT P6SM SCT015=


U.S. Dept. of Commerce
NOAA National Weather Service
1325 East West Highway
Silver Spring, MD 20910
E-mail: w-nws.webmaster@noaa.gov
Page last modified: May 16, 2007
NATIONAL WEATHER SERVICE: for Safety, for Work, for Fun - FOR LIFE